Thunderstorms From: 15-12-2017 06:00 Until: 16-12-2017 06:00 warning for: Thunderstorms Level: Yellow info button

Although rather usual in this region, locally or potentially dangerous phenomena are expected. (such as local winds, summer thunderstorms, rising streams or high waves) Be aware and pay attention to the latest weather updates, especially if you carry out activities exposed to weather or close to a stream or shoreline. 


Meteo18 Weather Cam more information Meteo18 Weather Cam


warning for Thunderstorms more information blitzortung!


Rain radar more information rain snow radar


Visit our other weather sites:

Template documentation
and downloads

And another site



Weather Underground History page Text

Daily Summary for October 5, 2016 Units:  Metric    English   Both
« Previous Day
Next Day »
Daily Weekly Monthly Yearly Custom
  High: Low: Average:
Temperature: 17.4 °C 8.7 °C 12.3 °C
Dew Point: 10.1 °C 4.5 °C 8.1 °C
Humidity: 91 % 58 % 77 %
Wind Speed: 30.6 km/h 0.0 km/h 11.2 km/h
Wind Gust: 35.4 km/h - -
Wind:- - NE
Pressure: 1023.2 hPa 1019.2 hPa -
Precipitation: 0.0 mm    
Historical Graphs
 
 
Tabular Data for October 5, 2016
Time Temperature Dew Point Pressure Wind Wind Speed Wind Gust Humidity Rainfall Rate (Hourly)
00:02 11.9 °C 8.7 °C 1023.2 hPa NE 12.9 km/h 16.1 km/h 81 % 0.0 mm
00:07 11.8 °C 8.8 °C 1023.2 hPa NNE 6.4 km/h 16.1 km/h 82 % 0.0 mm
00:17 11.7 °C 8.7 °C 1023.2 hPa NE 12.9 km/h 16.1 km/h 82 % 0.0 mm
00:22 11.6 °C 8.6 °C 1023.2 hPa NE 12.9 km/h 17.7 km/h 82 % 0.0 mm
00:27 11.6 °C 8.8 °C 1023.2 hPa NE 9.7 km/h 22.5 km/h 83 % 0.0 mm
00:32 11.6 °C 8.8 °C 1023.2 hPa NE 12.9 km/h 22.5 km/h 83 % 0.0 mm
00:37 11.6 °C 8.8 °C 1023.2 hPa NNE 9.7 km/h 22.5 km/h 83 % 0.0 mm
00:42 11.6 °C 8.8 °C 1023.2 hPa NNE 11.3 km/h 19.3 km/h 83 % 0.0 mm
00:47 11.5 °C 8.7 °C 1022.9 hPa NNE 12.9 km/h 19.3 km/h 83 % 0.0 mm
00:52 11.4 °C 8.6 °C 1022.9 hPa North 9.7 km/h 22.5 km/h 83 % 0.0 mm
00:57 11.3 °C 8.5 °C 1022.9 hPa ENE 9.7 km/h 22.5 km/h 83 % 0.0 mm
01:02 11.3 °C 8.7 °C 1022.9 hPa NE 9.7 km/h 22.5 km/h 84 % 0.0 mm
01:12 11.2 °C 8.6 °C 1022.9 hPa NNE 8.0 km/h 19.3 km/h 84 % 0.0 mm
01:17 11.2 °C 8.6 °C 1022.9 hPa NNE 11.3 km/h 19.3 km/h 84 % 0.0 mm
01:22 11.2 °C 8.6 °C 1022.9 hPa NE 6.4 km/h 19.3 km/h 84 % 0.0 mm
01:27 11.2 °C 8.6 °C 1022.9 hPa NNE 12.9 km/h 19.3 km/h 84 % 0.0 mm
01:32 11.2 °C 8.4 °C 1022.9 hPa NNE 6.4 km/h 17.7 km/h 83 % 0.0 mm
01:37 11.2 °C 8.4 °C 1022.9 hPa NNE 9.7 km/h 17.7 km/h 83 % 0.0 mm
01:42 11.1 °C 8.3 °C 1022.9 hPa NE 4.8 km/h 17.7 km/h 83 % 0.0 mm
01:47 11.1 °C 8.5 °C 1022.9 hPa NE 9.7 km/h 17.7 km/h 84 % 0.0 mm
01:52 11.1 °C 8.3 °C 1022.9 hPa NNE 6.4 km/h 20.9 km/h 83 % 0.0 mm
01:57 11.1 °C 8.5 °C 1022.9 hPa NE 6.4 km/h 20.9 km/h 84 % 0.0 mm
02:02 11.0 °C 8.4 °C 1022.9 hPa NE 6.4 km/h 19.3 km/h 84 % 0.0 mm
02:07 11.0 °C 8.4 °C 1022.9 hPa NNE 8.0 km/h 19.3 km/h 84 % 0.0 mm
02:12 10.9 °C 8.3 °C 1022.9 hPa NNE 9.7 km/h 19.3 km/h 84 % 0.0 mm
02:17 10.9 °C 8.3 °C 1022.9 hPa NE 16.1 km/h 19.3 km/h 84 % 0.0 mm
02:22 10.9 °C 8.3 °C 1022.9 hPa NE 16.1 km/h 19.3 km/h 84 % 0.0 mm
02:27 10.9 °C 8.3 °C 1022.9 hPa NNE 16.1 km/h 19.3 km/h 84 % 0.0 mm
02:32 10.9 °C 8.3 °C 1022.9 hPa NE 14.5 km/h 19.3 km/h 84 % 0.0 mm
02:37 10.8 °C 8.2 °C 1022.9 hPa NE 14.5 km/h 22.5 km/h 84 % 0.0 mm
02:47 10.7 °C 8.3 °C 1022.9 hPa NE 16.1 km/h 22.5 km/h 85 % 0.0 mm
02:57 10.6 °C 8.2 °C 1022.9 hPa NE 16.1 km/h 22.5 km/h 85 % 0.0 mm
03:02 10.6 °C 8.2 °C 1022.9 hPa ENE 9.7 km/h 22.5 km/h 85 % 0.0 mm
03:12 10.5 °C 8.1 °C 1022.6 hPa NNE 17.7 km/h 22.5 km/h 85 % 0.0 mm
03:17 10.4 °C 8.0 °C 1022.6 hPa NE 16.1 km/h 22.5 km/h 85 % 0.0 mm
03:22 10.4 °C 8.2 °C 1022.6 hPa NE 14.5 km/h 22.5 km/h 86 % 0.0 mm
03:27 10.4 °C 8.2 °C 1022.9 hPa NE 14.5 km/h 19.3 km/h 86 % 0.0 mm
03:37 10.3 °C 8.1 °C 1022.9 hPa NE 11.3 km/h 17.7 km/h 86 % 0.0 mm
03:42 10.3 °C 8.1 °C 1022.9 hPa NE 11.3 km/h 17.7 km/h 86 % 0.0 mm
03:47 10.3 °C 8.1 °C 1022.9 hPa NE 8.0 km/h 17.7 km/h 86 % 0.0 mm
03:52 10.2 °C 8.0 °C 1022.6 hPa NE 11.3 km/h 17.7 km/h 86 % 0.0 mm
03:57 10.2 °C 8.0 °C 1022.6 hPa NE 11.3 km/h 17.7 km/h 86 % 0.0 mm
04:07 10.2 °C 8.0 °C 1022.6 hPa ENE 4.8 km/h 20.9 km/h 86 % 0.0 mm
04:12 10.2 °C 8.1 °C 1022.6 hPa NE 3.2 km/h 16.1 km/h 87 % 0.0 mm
04:17 10.2 °C 8.0 °C 1022.6 hPa NNE 4.8 km/h 16.1 km/h 86 % 0.0 mm
04:22 10.2 °C 8.1 °C 1022.6 hPa NE 6.4 km/h 14.5 km/h 87 % 0.0 mm
04:27 10.2 °C 8.1 °C 1022.6 hPa NE 4.8 km/h 12.9 km/h 87 % 0.0 mm
04:32 10.1 °C 8.0 °C 1022.6 hPa ENE 4.8 km/h 12.9 km/h 87 % 0.0 mm
04:37 10.1 °C 8.0 °C 1022.2 hPa NNE 6.4 km/h 12.9 km/h 87 % 0.0 mm
04:42 10.1 °C 8.0 °C 1022.2 hPa ENE 4.8 km/h 16.1 km/h 87 % 0.0 mm
04:47 10.1 °C 8.0 °C 1022.2 hPa NE 9.7 km/h 16.1 km/h 87 % 0.0 mm
04:52 10.1 °C 8.0 °C 1022.2 hPa NNE 11.3 km/h 16.1 km/h 87 % 0.0 mm
04:57 10.1 °C 8.0 °C 1022.2 hPa NE 14.5 km/h 14.5 km/h 87 % 0.0 mm
05:02 10.0 °C 7.9 °C 1022.2 hPa NNE 4.8 km/h 14.5 km/h 87 % 0.0 mm
05:12 10.0 °C 7.9 °C 1022.2 hPa NE 9.7 km/h 17.7 km/h 87 % 0.0 mm
05:17 10.0 °C 7.9 °C 1022.2 hPa NE 8.0 km/h 17.7 km/h 87 % 0.0 mm
05:22 9.9 °C 8.0 °C 1022.2 hPa NNE 9.7 km/h 19.3 km/h 88 % 0.0 mm
05:32 9.9 °C 8.0 °C 1022.2 hPa East 8.0 km/h 19.3 km/h 88 % 0.0 mm
05:37 9.9 °C 8.0 °C 1021.9 hPa NNE 9.7 km/h 17.7 km/h 88 % 0.0 mm
05:42 9.8 °C 7.9 °C 1022.2 hPa North 8.0 km/h 20.9 km/h 88 % 0.0 mm
05:57 9.8 °C 7.9 °C 1021.9 hPa NNE 11.3 km/h 17.7 km/h 88 % 0.0 mm
06:02 9.8 °C 7.9 °C 1021.9 hPa NE 11.3 km/h 17.7 km/h 88 % 0.0 mm
06:07 9.7 °C 7.8 °C 1021.9 hPa NE 8.0 km/h 16.1 km/h 88 % 0.0 mm
06:12 9.7 °C 8.0 °C 1021.9 hPa North 9.7 km/h 16.1 km/h 89 % 0.0 mm
06:17 9.7 °C 7.8 °C 1021.9 hPa NNE 4.8 km/h 16.1 km/h 88 % 0.0 mm
06:22 9.6 °C 7.9 °C 1021.9 hPa ENE 3.2 km/h 14.5 km/h 89 % 0.0 mm
06:27 9.6 °C 7.9 °C 1021.9 hPa NE 3.2 km/h 14.5 km/h 89 % 0.0 mm
06:32 9.5 °C 7.8 °C 1021.9 hPa NE 3.2 km/h 14.5 km/h 89 % 0.0 mm
06:37 9.4 °C 7.7 °C 1021.9 hPa NE 8.0 km/h 14.5 km/h 89 % 0.0 mm
06:42 9.4 °C 7.7 °C 1021.9 hPa ENE 9.7 km/h 14.5 km/h 89 % 0.0 mm
06:47 9.3 °C 7.7 °C 1021.9 hPa NE 3.2 km/h 14.5 km/h 90 % 0.0 mm
06:52 9.3 °C 7.7 °C 1021.9 hPa NNE 11.3 km/h 14.5 km/h 90 % 0.0 mm
06:57 9.3 °C 7.7 °C 1021.9 hPa NE 9.7 km/h 14.5 km/h 90 % 0.0 mm
07:02 9.3 °C 7.7 °C 1021.9 hPa Calm   14.5 km/h 90 % 0.0 mm
07:12 9.1 °C 7.5 °C 1021.9 hPa NE 3.2 km/h 12.9 km/h 90 % 0.0 mm
07:17 9.1 °C 7.5 °C 1021.9 hPa NNE 6.4 km/h 11.3 km/h 90 % 0.0 mm
07:22 9.1 °C 7.5 °C 1021.9 hPa NE 3.2 km/h 14.5 km/h 90 % 0.0 mm
07:32 9.1 °C 7.5 °C 1021.6 hPa NNE 6.4 km/h 16.1 km/h 90 % 0.0 mm
07:37 9.0 °C 7.6 °C 1021.9 hPa NNE 8.0 km/h 16.1 km/h 91 % 0.0 mm
07:42 9.0 °C 7.6 °C 1021.9 hPa NE 12.9 km/h 17.7 km/h 91 % 0.0 mm
07:47 9.0 °C 7.4 °C 1021.9 hPa NE 9.7 km/h 17.7 km/h 90 % 0.0 mm
07:52 8.9 °C 7.3 °C 1021.9 hPa NNE 4.8 km/h 17.7 km/h 90 % 0.0 mm
07:57 8.9 °C 7.5 °C 1021.9 hPa NNE 9.7 km/h 17.7 km/h 91 % 0.0 mm
08:02 8.9 °C 7.5 °C 1021.9 hPa ENE 9.7 km/h 14.5 km/h 91 % 0.0 mm
08:12 9.0 °C 7.4 °C 1022.2 hPa ENE 6.4 km/h 14.5 km/h 90 % 0.0 mm
08:17 9.1 °C 7.5 °C 1021.9 hPa NNE 8.0 km/h 16.1 km/h 90 % 0.0 mm
08:22 9.1 °C 7.5 °C 1022.2 hPa NNE 3.2 km/h 16.1 km/h 90 % 0.0 mm
08:27 9.1 °C 7.5 °C 1021.9 hPa NNE 11.3 km/h 16.1 km/h 90 % 0.0 mm
08:32 9.1 °C 7.5 °C 1021.9 hPa NNE 6.4 km/h 16.1 km/h 90 % 0.0 mm
08:37 9.0 °C 7.4 °C 1021.9 hPa NE 6.4 km/h 17.7 km/h 90 % 0.0 mm
08:47 9.1 °C 7.5 °C 1022.2 hPa NE 11.3 km/h 17.7 km/h 90 % 0.0 mm
08:52 9.2 °C 7.6 °C 1022.2 hPa NNE 4.8 km/h 14.5 km/h 90 % 0.0 mm
08:57 9.2 °C 7.6 °C 1022.2 hPa NE 1.6 km/h 12.9 km/h 90 % 0.0 mm
09:07 9.4 °C 7.8 °C 1022.2 hPa NE 4.8 km/h 14.5 km/h 90 % 0.0 mm
09:12 9.5 °C 7.8 °C 1022.2 hPa NNE 6.4 km/h 12.9 km/h 89 % 0.0 mm
09:17 9.6 °C 7.9 °C 1021.9 hPa NE 6.4 km/h 12.9 km/h 89 % 0.0 mm
09:22 9.6 °C 7.9 °C 1022.2 hPa NE 8.0 km/h 12.9 km/h 89 % 0.0 mm
09:32 9.6 °C 7.9 °C 1022.2 hPa NNE 9.7 km/h 14.5 km/h 89 % 0.0 mm
09:37 9.7 °C 8.0 °C 1022.2 hPa NNE 8.0 km/h 14.5 km/h 89 % 0.0 mm
09:42 9.7 °C 8.0 °C 1022.2 hPa Calm   12.9 km/h 89 % 0.0 mm
09:47 9.8 °C 7.9 °C 1022.2 hPa NNE 6.4 km/h 14.5 km/h 88 % 0.0 mm
09:52 9.9 °C 8.0 °C 1022.2 hPa ENE 1.6 km/h 14.5 km/h 88 % 0.0 mm
09:57 10.0 °C 7.9 °C 1022.2 hPa NNE 4.8 km/h 11.3 km/h 87 % 0.0 mm
10:02 10.1 °C 8.2 °C 1022.2 hPa NE 9.7 km/h 16.1 km/h 88 % 0.0 mm
10:12 10.1 °C 8.0 °C 1022.2 hPa North 8.0 km/h 16.1 km/h 87 % 0.0 mm
10:22 10.3 °C 8.2 °C 1022.2 hPa NNE 6.4 km/h 12.9 km/h 87 % 0.0 mm
10:27 10.3 °C 8.2 °C 1022.2 hPa NE 8.0 km/h 12.9 km/h 87 % 0.0 mm
10:32 10.4 °C 8.3 °C 1022.2 hPa NE 6.4 km/h 12.9 km/h 87 % 0.0 mm
10:37 10.6 °C 8.5 °C 1022.2 hPa ENE 9.7 km/h 12.9 km/h 87 % 0.0 mm
10:42 10.8 °C 8.6 °C 1022.2 hPa NE 12.9 km/h 12.9 km/h 86 % 0.0 mm
10:47 11.0 °C 8.7 °C 1022.2 hPa NNE 6.4 km/h 14.5 km/h 86 % 0.0 mm
10:52 11.3 °C 8.9 °C 1022.2 hPa ENE 6.4 km/h 14.5 km/h 85 % 0.0 mm
10:57 11.4 °C 8.8 °C 1022.2 hPa NNE 11.3 km/h 14.5 km/h 84 % 0.0 mm
11:02 11.6 °C 9.0 °C 1022.2 hPa NNE 6.4 km/h 14.5 km/h 84 % 0.0 mm
11:07 11.6 °C 8.8 °C 1022.2 hPa NNE 12.9 km/h 16.1 km/h 83 % 0.0 mm
11:12 11.7 °C 8.9 °C 1022.2 hPa NNW 4.8 km/h 17.7 km/h 83 % 0.0 mm
11:17 11.9 °C 9.1 °C 1022.2 hPa NE 9.7 km/h 17.7 km/h 83 % 0.0 mm
11:22 12.1 °C 9.1 °C 1022.2 hPa NE 12.9 km/h 17.7 km/h 82 % 0.0 mm
11:27 12.2 °C 9.2 °C 1022.2 hPa NE 3.2 km/h 16.1 km/h 82 % 0.0 mm
11:32 12.4 °C 9.2 °C 1022.2 hPa NE 14.5 km/h 16.1 km/h 81 % 0.0 mm
11:37 12.7 °C 9.5 °C 1022.2 hPa NE 3.2 km/h 17.7 km/h 81 % 0.0 mm
11:42 12.9 °C 9.3 °C 1021.9 hPa ENE 6.4 km/h 17.7 km/h 79 % 0.0 mm
11:47 13.2 °C 9.4 °C 1021.9 hPa North 11.3 km/h 17.7 km/h 78 % 0.0 mm
11:52 13.4 °C 9.6 °C 1021.9 hPa NE 6.4 km/h 14.5 km/h 78 % 0.0 mm
11:57 13.5 °C 9.5 °C 1021.9 hPa NE 3.2 km/h 16.1 km/h 77 % 0.0 mm
12:02 13.6 °C 9.6 °C 1021.9 hPa NE 14.5 km/h 17.7 km/h 77 % 0.0 mm
12:12 14.1 °C 9.9 °C 1021.9 hPa East 14.5 km/h 19.3 km/h 76 % 0.0 mm
12:17 14.1 °C 9.7 °C 1021.9 hPa NE 9.7 km/h 16.1 km/h 75 % 0.0 mm
12:22 14.0 °C 9.4 °C 1021.9 hPa ENE 8.0 km/h 16.1 km/h 74 % 0.0 mm
12:32 14.1 °C 9.3 °C 1021.6 hPa NE 19.3 km/h 19.3 km/h 73 % 0.0 mm
12:37 14.1 °C 9.5 °C 1021.6 hPa NE 16.1 km/h 20.9 km/h 74 % 0.0 mm
12:42 14.3 °C 9.9 °C 1021.6 hPa NE 8.0 km/h 20.9 km/h 75 % 0.0 mm
12:47 14.4 °C 9.6 °C 1021.6 hPa NE 19.3 km/h 20.9 km/h 73 % 0.0 mm
12:52 14.4 °C 9.6 °C 1021.6 hPa NNE 11.3 km/h 22.5 km/h 73 % 0.0 mm
12:57 14.4 °C 9.4 °C 1021.6 hPa North 8.0 km/h 22.5 km/h 72 % 0.0 mm
13:02 14.7 °C 9.9 °C 1021.6 hPa ENE 9.7 km/h 22.5 km/h 73 % 0.0 mm
13:07 14.8 °C 9.8 °C 1021.6 hPa NE 6.4 km/h 24.1 km/h 72 % 0.0 mm
13:12 14.9 °C 9.7 °C 1021.6 hPa NNE 14.5 km/h 24.1 km/h 71 % 0.0 mm
13:17 14.8 °C 9.8 °C 1021.6 hPa NE 8.0 km/h 22.5 km/h 72 % 0.0 mm
13:22 14.9 °C 9.7 °C 1021.6 hPa NNE 14.5 km/h 22.5 km/h 71 % 0.0 mm
13:27 14.8 °C 9.6 °C 1021.6 hPa ENE 4.8 km/h 25.7 km/h 71 % 0.0 mm
13:37 14.7 °C 9.7 °C 1021.2 hPa NE 11.3 km/h 20.9 km/h 72 % 0.0 mm
13:42 14.6 °C 9.6 °C 1021.2 hPa ENE 12.9 km/h 17.7 km/h 72 % 0.0 mm
13:47 14.5 °C 9.5 °C 1021.2 hPa NE 11.3 km/h 19.3 km/h 72 % 0.0 mm
13:52 14.6 °C 9.6 °C 1021.2 hPa NNW 8.0 km/h 19.3 km/h 72 % 0.0 mm
13:57 14.4 °C 9.4 °C 1021.2 hPa NNE 14.5 km/h 22.5 km/h 72 % 0.0 mm
14:02 14.6 °C 9.6 °C 1021.2 hPa NE 14.5 km/h 22.5 km/h 72 % 0.0 mm
14:12 14.8 °C 9.6 °C 1021.2 hPa NNE 16.1 km/h 27.4 km/h 71 % 0.0 mm
14:17 14.9 °C 9.7 °C 1021.2 hPa NE 8.0 km/h 27.4 km/h 71 % 0.0 mm
14:22 15.1 °C 9.9 °C 1021.2 hPa ENE 8.0 km/h 27.4 km/h 71 % 0.0 mm
14:27 15.3 °C 9.9 °C 1021.2 hPa NE 11.3 km/h 27.4 km/h 70 % 0.0 mm
14:32 15.4 °C 10.0 °C 1020.9 hPa NNE 12.9 km/h 22.5 km/h 70 % 0.0 mm
14:37 15.6 °C 9.9 °C 1020.9 hPa NNE 12.9 km/h 22.5 km/h 69 % 0.0 mm
14:47 15.9 °C 9.6 °C 1020.9 hPa NE 17.7 km/h 27.4 km/h 66 % 0.0 mm
14:57 16.2 °C 9.8 °C 1020.5 hPa NNE 20.9 km/h 29.0 km/h 66 % 0.0 mm
15:02 16.3 °C 9.7 °C 1020.5 hPa East 14.5 km/h 29.0 km/h 65 % 0.0 mm
15:12 16.6 °C 9.8 °C 1020.5 hPa NE 12.9 km/h 29.0 km/h 64 % 0.0 mm
15:17 16.9 °C 9.8 °C 1020.5 hPa East 25.7 km/h 29.0 km/h 63 % 0.0 mm
15:22 16.9 °C 10.0 °C 1020.5 hPa NE 11.3 km/h 29.0 km/h 64 % 0.0 mm
15:27 17.2 °C 10.1 °C 1020.5 hPa ENE 12.9 km/h 29.0 km/h 63 % 0.0 mm
15:32 17.2 °C 9.9 °C 1020.5 hPa North 14.5 km/h 29.0 km/h 62 % 0.0 mm
15:37 16.9 °C 9.6 °C 1020.2 hPa NE 30.6 km/h 30.6 km/h 62 % 0.0 mm
15:42 16.9 °C 9.8 °C 1020.2 hPa NNE 16.1 km/h 35.4 km/h 63 % 0.0 mm
15:47 17.1 °C 9.8 °C 1020.2 hPa NNE 16.1 km/h 35.4 km/h 62 % 0.0 mm
15:52 17.0 °C 9.7 °C 1020.2 hPa NNE 19.3 km/h 35.4 km/h 62 % 0.0 mm
15:57 16.9 °C 9.6 °C 1020.2 hPa NE 12.9 km/h 33.8 km/h 62 % 0.0 mm
16:02 16.8 °C 9.2 °C 1020.2 hPa East 8.0 km/h 29.0 km/h 61 % 0.0 mm
16:12 17.1 °C 9.5 °C 1020.2 hPa ENE 12.9 km/h 35.4 km/h 61 % 0.0 mm
16:17 17.1 °C 9.5 °C 1020.2 hPa ENE 14.5 km/h 35.4 km/h 61 % 0.0 mm
16:22 17.2 °C 9.4 °C 1020.2 hPa ENE 16.1 km/h 30.6 km/h 60 % 0.0 mm
16:27 17.2 °C 9.4 °C 1020.2 hPa NE 16.1 km/h 27.4 km/h 60 % 0.0 mm
16:32 17.3 °C 9.2 °C 1020.2 hPa NNE 24.1 km/h 27.4 km/h 59 % 0.0 mm
16:37 17.2 °C 9.1 °C 1020.2 hPa NE 17.7 km/h 27.4 km/h 59 % 0.0 mm
16:42 17.2 °C 9.1 °C 1020.2 hPa NE 19.3 km/h 27.4 km/h 59 % 0.0 mm
16:47 17.2 °C 9.1 °C 1020.2 hPa NNE 14.5 km/h 29.0 km/h 59 % 0.0 mm
16:52 17.3 °C 9.2 °C 1020.2 hPa NE 16.1 km/h 30.6 km/h 59 % 0.0 mm
16:57 17.4 °C 9.1 °C 1020.2 hPa ENE 22.5 km/h 30.6 km/h 58 % 0.0 mm
17:02 17.3 °C 9.0 °C 1020.2 hPa NNE 20.9 km/h 30.6 km/h 58 % 0.0 mm
17:12 17.2 °C 8.9 °C 1019.9 hPa NE 14.5 km/h 30.6 km/h 58 % 0.0 mm
17:17 17.3 °C 9.2 °C 1019.9 hPa ENE 12.9 km/h 29.0 km/h 59 % 0.0 mm
17:27 17.2 °C 9.1 °C 1019.9 hPa NNE 22.5 km/h 29.0 km/h 59 % 0.0 mm
17:42 16.9 °C 8.6 °C 1019.9 hPa ENE 9.7 km/h 35.4 km/h 58 % 0.0 mm
17:47 16.8 °C 8.5 °C 1019.5 hPa NE 14.5 km/h 35.4 km/h 58 % 0.0 mm
17:57 16.7 °C 8.6 °C 1019.5 hPa NE 8.0 km/h 29.0 km/h 59 % 0.0 mm
18:02 16.5 °C 8.5 °C 1019.5 hPa ENE 14.5 km/h 29.0 km/h 59 % 0.0 mm
18:07 16.3 °C 8.3 °C 1019.5 hPa ENE 22.5 km/h 25.7 km/h 59 % 0.0 mm
18:12 16.2 °C 7.9 °C 1019.2 hPa North 17.7 km/h 27.4 km/h 58 % 0.0 mm
18:17 16.1 °C 8.1 °C 1019.5 hPa NE 14.5 km/h 27.4 km/h 59 % 0.0 mm
18:27 15.8 °C 8.0 °C 1019.5 hPa East 14.5 km/h 22.5 km/h 60 % 0.0 mm
18:32 15.7 °C 7.7 °C 1019.5 hPa NE 9.7 km/h 22.5 km/h 59 % 0.0 mm
18:42 15.3 °C 7.8 °C 1019.5 hPa ENE 11.3 km/h 20.9 km/h 61 % 0.0 mm
18:47 15.2 °C 7.7 °C 1019.5 hPa NE 11.3 km/h 20.9 km/h 61 % 0.0 mm
18:52 15.1 °C 7.6 °C 1019.5 hPa NNE 11.3 km/h 20.9 km/h 61 % 0.0 mm
18:57 15.1 °C 7.9 °C 1019.5 hPa NE 12.9 km/h 17.7 km/h 62 % 0.0 mm
19:02 14.9 °C 7.7 °C 1019.5 hPa NE 11.3 km/h 20.9 km/h 62 % 0.0 mm
19:12 14.4 °C 7.7 °C 1019.5 hPa NNE 11.3 km/h 20.9 km/h 64 % 0.0 mm
19:17 14.3 °C 7.6 °C 1019.9 hPa NE 14.5 km/h 20.9 km/h 64 % 0.0 mm
19:27 14.0 °C 7.5 °C 1019.5 hPa NNE 14.5 km/h 19.3 km/h 65 % 0.0 mm
19:37 13.8 °C 7.3 °C 1019.5 hPa North 11.3 km/h 20.9 km/h 65 % 0.0 mm
19:42 13.7 °C 7.2 °C 1019.5 hPa NE 16.1 km/h 20.9 km/h 65 % 0.0 mm
19:47 13.6 °C 7.1 °C 1019.5 hPa NE 16.1 km/h 20.9 km/h 65 % 0.0 mm
19:52 13.5 °C 6.8 °C 1019.5 hPa NE 11.3 km/h 20.9 km/h 64 % 0.0 mm
20:02 13.2 °C 6.8 °C 1019.5 hPa NNE 19.3 km/h 20.9 km/h 65 % 0.0 mm
20:07 13.1 °C 6.7 °C 1019.5 hPa NNE 19.3 km/h 20.9 km/h 65 % 0.0 mm
20:12 13.1 °C 6.4 °C 1019.5 hPa NNW 11.3 km/h 24.1 km/h 64 % 0.0 mm
20:17 12.9 °C 6.5 °C 1019.5 hPa NNE 11.3 km/h 24.1 km/h 65 % 0.0 mm
20:32 12.7 °C 6.3 °C 1019.5 hPa NE 19.3 km/h 22.5 km/h 65 % 0.0 mm
20:42 12.4 °C 6.2 °C 1019.9 hPa NNE 11.3 km/h 22.5 km/h 66 % 0.0 mm
20:47 12.3 °C 6.1 °C 1019.9 hPa NE 20.9 km/h 24.1 km/h 66 % 0.0 mm
20:57 12.1 °C 5.9 °C 1019.9 hPa NNE 12.9 km/h 27.4 km/h 66 % 0.0 mm
21:02 12.1 °C 5.9 °C 1019.9 hPa NE 19.3 km/h 27.4 km/h 66 % 0.0 mm
21:07 12.0 °C 5.8 °C 1019.9 hPa NE 14.5 km/h 27.4 km/h 66 % 0.0 mm
21:17 11.9 °C 5.7 °C 1019.9 hPa NE 20.9 km/h 27.4 km/h 66 % 0.0 mm
21:27 11.8 °C 5.7 °C 1019.9 hPa NE 16.1 km/h 27.4 km/h 66 % 0.0 mm
21:32 11.7 °C 5.6 °C 1019.9 hPa NNE 14.5 km/h 25.7 km/h 66 % 0.0 mm
21:42 11.7 °C 5.6 °C 1019.9 hPa NE 8.0 km/h 29.0 km/h 66 % 0.0 mm
21:47 11.5 °C 5.6 °C 1019.9 hPa NE 14.5 km/h 29.0 km/h 67 % 0.0 mm
21:57 11.3 °C 5.4 °C 1019.9 hPa NE 20.9 km/h 24.1 km/h 67 % 0.0 mm
22:02 11.2 °C 5.3 °C 1019.9 hPa NE 12.9 km/h 24.1 km/h 67 % 0.0 mm
22:07 11.1 °C 5.4 °C 1019.9 hPa NE 11.3 km/h 22.5 km/h 68 % 0.0 mm
22:12 10.9 °C 5.2 °C 1019.9 hPa ENE 12.9 km/h 24.1 km/h 68 % 0.0 mm
22:22 10.7 °C 5.2 °C 1019.9 hPa NNE 6.4 km/h 24.1 km/h 69 % 0.0 mm
22:32 10.4 °C 5.2 °C 1019.9 hPa NNE 11.3 km/h 20.9 km/h 70 % 0.0 mm
22:37 10.3 °C 5.1 °C 1019.9 hPa ENE 12.9 km/h 20.9 km/h 70 % 0.0 mm
22:47 10.2 °C 5.0 °C 1019.9 hPa NE 12.9 km/h 20.9 km/h 70 % 0.0 mm
22:57 9.9 °C 4.9 °C 1019.9 hPa NE 8.0 km/h 20.9 km/h 71 % 0.0 mm
23:02 9.9 °C 4.9 °C 1019.9 hPa NE 16.1 km/h 22.5 km/h 71 % 0.0 mm
23:07 9.8 °C 5.0 °C 1019.9 hPa NE 12.9 km/h 22.5 km/h 72 % 0.0 mm
23:12 9.7 °C 4.9 °C 1019.9 hPa NE 14.5 km/h 22.5 km/h 72 % 0.0 mm
23:32 9.3 °C 4.7 °C 1019.9 hPa NNE 24.1 km/h 24.1 km/h 73 % 0.0 mm
23:42 9.1 °C 4.7 °C 1019.5 hPa NE 16.1 km/h 24.1 km/h 74 % 0.0 mm
23:57 8.7 °C 4.5 °C 1019.5 hPa NNE 11.3 km/h 17.7 km/h 75 % 0.0 mm
Meteo18
Compliments of Weather Underground - 4 mb

Script developed by  Jim McMurry - jmcmurry@mwt.net Adapted for the template by  Wim van der Kuil - Leuven-Template.eu

You find our weather info also at:

European Weather Network

Weather Underground

Equipment we use:

Weather-station
Davis Vue

Weather-program
Meteohub

Weather-server
Raspberry PI 2 B+

Provider
1 and 1

Davis Vue

Meteohub

Raspberry PI 2 B+

1 and 1